This is the latest recevied weather packets stored in our database for station/object KB4RFE. If no packets are shown the sender has not sent any weather packets the latest 10 day(s).
| Time | Temp. | Humidity | Pressure | Rain* | Wind** | Luminosity | Snow |
|---|---|---|---|---|---|---|---|
| 1778010274 | 25° C | 58% | 1020.3 hPa | 0 mm | - | 770 W/m² | - |
| 1778009974 | 24.44° C | 56% | 1020.5 hPa | 0 mm | - | 780 W/m² | - |
| 1778009672 | 24.44° C | 58% | 1020.6 hPa | 0 mm | - | 509 W/m² | - |
| 1778009370 | 24.44° C | 57% | 1020.7 hPa | 0 mm | - | 820 W/m² | - |
| 1778009068 | 25° C | 55% | 1020.8 hPa | 0 mm | - | 822 W/m² | - |
| 1778008765 | 24.44° C | 57% | 1021 hPa | 0 mm | - | 944 W/m² | - |
| 1778008464 | 24.44° C | 55% | 1021.1 hPa | 0 mm | - | 994 W/m² | - |
| 1778008160 | 24.44° C | 56% | 1020.9 hPa | 0 mm | - | 591 W/m² | - |
| 1778007855 | 25° C | 56% | 1021 hPa | 0 mm | - | 359 W/m² | - |
| 1778007551 | 25° C | 57% | 1020.9 hPa | 0 mm | - | 891 W/m² | - |
| 1778007248 | 24.44° C | 57% | 1020.8 hPa | 0 mm | - | 881 W/m² | - |
| 1778006944 | 24.44° C | 57% | 1020.8 hPa | 0 mm | - | 884 W/m² | - |
| 1778006641 | 24.44° C | 56% | 1021 hPa | 0 mm | - | 895 W/m² | - |
| 1778006338 | 25° C | 55% | 1020.7 hPa | 0 mm | - | 901 W/m² | - |
| 1778006035 | 24.44° C | 58% | 1020.6 hPa | 0 mm | - | 908 W/m² | - |
| 1778005731 | 25° C | 60% | 1020.6 hPa | 0 mm | - | 914 W/m² | - |
| 1778005428 | 24.44° C | 55% | 1020.8 hPa | 0 mm | - | 927 W/m² | - |
| 1778005125 | 24.44° C | 55% | 1020.8 hPa | 0 mm | - | 941 W/m² | - |
| 1778004822 | 24.44° C | 61% | 1020.8 hPa | 0 mm | - | 933 W/m² | - |
| 1778004519 | 24.44° C | 53% | 1021 hPa | 0 mm | - | 948 W/m² | - |
| 1778004215 | 24.44° C | 58% | 1021 hPa | 0 mm | - | 946 W/m² | - |
| 1778003912 | 23.89° C | 54% | 1020.9 hPa | 0 mm | - | 957 W/m² | - |
| 1778003609 | 23.89° C | 57% | 1020.6 hPa | 0 mm | - | 962 W/m² | - |
| 1778003305 | 23.89° C | 60% | 1020.6 hPa | 0 mm | - | 965 W/m² | - |
| 1778003003 | 23.33° C | 64% | 1020.6 hPa | 0 mm | - | 955 W/m² | - |
* Rain latest hour (hover to see other rain measurements)
** Current wind speed in m/s (hover to see current wind gust speed)